Regional Weather Roundup
Issued by NWS

Home | Current Version | Previous Version | Graphics & Text | Print | Product List | Glossary On
Versions: 1 2 3 4 5 6 7 8 9 10 11 12 13 14 15 16 17 18 19 20 21 22 23 24 25 26 27 28 29 30 31 32 33 34 35 36 37 38 39 40 41 42 43 44 45 46 47 48 49 50
000
ASUS43 KFSD 270210
RWRSD

WEATHER ROUNDUP FOR SOUTH DAKOTA
NATIONAL WEATHER SERVICE SIOUX FALLS SD
900 PM CDT THU APR 26 2018

NOTE: "FAIR" INDICATES FEW OR NO CLOUDS BELOW 12,000 FEET WITH NO
SIGNIFICANT WEATHER AND/OR OBSTRUCTIONS TO VISIBILITY.


SDZ001>005-009-010-012>017-270300-
NORTHWEST AND NORTH CENTRAL SOUTH DAKOTA

CITY           SKY/WX    TMP DP  RH WIND       PRES   REMARKS
BUFFALO          N/A     55  29  36 NW12      30.01S
FAITH            N/A     54  34  46 NW9       30.05S
MOBRIDGE       CLEAR     55  33  43 NW6       29.97F
$$

SDZ012>016-024>037-041>051-057-063-072>074-270300-
SOUTHWEST AND SOUTH CENTRAL SOUTH DAKOTA

CITY           SKY/WX    TMP DP  RH WIND       PRES   REMARKS
RAPID CTY ARPT CLEAR     54  32  43 S3        30.10S
PIERRE         CLEAR     58  27  30 W5        30.03S
CUSTER         CLEAR     47  23  38 W7        30.17S
ELLSWORTH AFB  CLEAR     58  31  35 N12       30.09S
PHILIP         CLEAR     53  33  46 NW8       30.06F
PINE RIDGE     CLEAR     53  33  46 E5        30.12F
SPEARFISH      FAIR      54  30  40 W5        30.12F
WINNER         FAIR      57  27  31 NE5       30.07F
$$

SDZ004>011-016>023-039-040-270300-
NORTHEAST SOUTH DAKOTA

CITY           SKY/WX    TMP DP  RH WIND       PRES   REMARKS
ABERDEEN       CLEAR     52  28  39 N3        29.98F
WATERTOWN      CLEAR     51  31  46 CALM      30.00S
BROOKINGS      CLEAR     49  35  58 CALM      30.02S
SISSETON         N/A     53  33  46 SE5       29.97S
$$

SDZ017-020-022-023-036>040-048>070-270300-
SOUTHEAST SOUTH DAKOTA

CITY           SKY/WX    TMP DP  RH WIND       PRES   REMARKS
SIOUX FALLS    CLEAR     49  32  52 NW3       30.03S
HURON          CLEAR     53  34  48 W6        30.01S
CHAMBERLAIN    CLEAR     53  32  44 W3        30.05S
MITCHELL       CLEAR     57  33  40 W3        30.03F
YANKTON        CLEAR     54  32  43 W5        30.05S
$$

ABBREVIATIONS USED IN REMARKS
   TC - TEMPERATURE IN CELSIUS
  WCI - WIND CHILL INDEX
   HX - HEAT INDEX
  VSB - VISIBILITY




USA.gov is the U.S. government's official web portal to all federal, state and local government web resources and services.